• In Russia
  • List of Countries
  • For 7 days
  • Water Temperature
  • Satellite Maps
  • Weather Map
  • Weather Widgets
  • user-avatar
    Login

    Hourly Weather Tolna

    Today, 25 September, Tuesday

    Time Temperature Precipitation Wind Pressure Humidity
    00:00 +9°C° 0 mm 5 mps 763 mmHg 54%
    01:00 +8°C° 0 mm 5 mps 763 mmHg 55%
    02:00 +8°C° 0 mm 5 mps 764 mmHg 57%
    03:00 +8°C° 0 mm 4 mps 764 mmHg 59%
    04:00 +7°C° 0 mm 4 mps 764 mmHg 61%
    05:00 +8°C° 0 mm 5 mps 764 mmHg 61%
    06:00 +8°C° 0 mm 6 mps 765 mmHg 60%
    07:00 +8°C° 0 mm 6 mps 765 mmHg 60%
    08:00 +10°C° 0 mm 7 mps 765 mmHg 54%
    09:00 +11°C° 0 mm 7 mps 766 mmHg 48%
    10:00 +12°C° 0 mm 7 mps 766 mmHg 43%
    11:00 +14°C° 0 mm 7 mps 766 mmHg 39%
    12:00 +15°C° 0 mm 7 mps 766 mmHg 36%
    13:00 +15°C° 0 mm 6 mps 766 mmHg 32%
    14:00 +15°C° 0 mm 6 mps 766 mmHg 32%
    15:00 +15°C° 0 mm 6 mps 766 mmHg 32%
    16:00 +15°C° 0 mm 6 mps 766 mmHg 33%
    17:00 +13°C° 0 mm 5 mps 766 mmHg 37%
    18:00 +12°C° 0 mm 4 mps 767 mmHg 42%
    19:00 +10°C° 0 mm 3 mps 767 mmHg 46%
    20:00 +10°C° 0 mm 3 mps 768 mmHg 49%
    21:00 +9°C° 0 mm 3 mps 768 mmHg 51%
    22:00 +8°C° 0 mm 3 mps 768 mmHg 53%
    23:00 +8°C° 0 mm 3 mps 769 mmHg 56%

    Tomorrow, 26 September, Wednesday

    Time Temperature Precipitation Wind Pressure Humidity
    00:00 +8°C° 0 mm 3 mps 769 mmHg 58%
    01:00 +7°C° 0 mm 3 mps 769 mmHg 60%
    02:00 +7°C° 0 mm 2 mps 769 mmHg 61%
    03:00 +6°C° 0 mm 2 mps 769 mmHg 63%
    04:00 +6°C° 0 mm 2 mps 769 mmHg 64%
    05:00 +7°C° 0 mm 2 mps 770 mmHg 61%
    06:00 +7°C° 0 mm 2 mps 770 mmHg 58%
    07:00 +9°C° 0 mm 1 mps 770 mmHg 56%
    08:00 +10°C° 0 mm 2 mps 770 mmHg 48%
    09:00 +13°C° 0 mm 2 mps 770 mmHg 41%
    10:00 +15°C° 0 mm 2 mps 770 mmHg 34%
    11:00 +16°C° 0 mm 2 mps 770 mmHg 31%
    12:00 +17°C° 0 mm 2 mps 769 mmHg 29%
    13:00 +19°C° 0 mm 1 mps 769 mmHg 27%
    14:00 +19°C° 0 mm 1 mps 768 mmHg 26%
    15:00 +19°C° 0 mm 1 mps 768 mmHg 26%
    16:00 +18°C° 0 mm 1 mps 768 mmHg 26%
    17:00 +16°C° 0 mm 1 mps 768 mmHg 30%
    18:00 +14°C° 0 mm 1 mps 768 mmHg 34%
    19:00 +11°C° 0 mm 0 mps 767 mmHg 37%
    20:00 +11°C° 0 mm 0 mps 768 mmHg 38%
    21:00 +10°C° 0 mm 0 mps 768 mmHg 40%
    22:00 +11°C° 0 mm 1 mps 768 mmHg 41%
    23:00 +10°C° 0 mm 1 mps 768 mmHg 42%

    Day after tomorrow, 27 September, Thursday

    Time Temperature Precipitation Wind Pressure Humidity
    00:00 +10°C° 0 mm 1 mps 767 mmHg 43%
    01:00 +10°C° 0 mm 1 mps 767 mmHg 44%
    02:00 +9°C° 0 mm 1 mps 767 mmHg 45%
    03:00 +9°C° 0 mm 1 mps 767 mmHg 46%
    04:00 +9°C° 0 mm 1 mps 766 mmHg 47%
    05:00 +9°C° 0 mm 1 mps 766 mmHg 46%
    06:00 +10°C° 0 mm 1 mps 766 mmHg 45%
    07:00 +11°C° 0 mm 1 mps 766 mmHg 44%
    08:00 +13°C° 0 mm 2 mps 766 mmHg 39%
    09:00 +15°C° 0 mm 2 mps 766 mmHg 34%
    10:00 +18°C° 0 mm 2 mps 766 mmHg 29%
    11:00 +19°C° 0 mm 2 mps 766 mmHg 27%
    12:00 +20°C° 0 mm 2 mps 765 mmHg 25%
    13:00 +21°C° 0 mm 2 mps 765 mmHg 22%
    14:00 +21°C° 0 mm 2 mps 764 mmHg 23%
    15:00 +22°C° 0 mm 1 mps 763 mmHg 23%
    16:00 +22°C° 0 mm 1 mps 763 mmHg 23%
    17:00 +20°C° 0 mm 1 mps 763 mmHg 27%
    18:00 +18°C° 0 mm 1 mps 763 mmHg 31%
    19:00 +15°C° 0 mm 1 mps 762 mmHg 34%
    20:00 +15°C° 0 mm 1 mps 762 mmHg 36%
    21:00 +15°C° 0 mm 1 mps 762 mmHg 37%
    22:00 +14°C° 0 mm 1 mps 762 mmHg 39%
    23:00 +13°C° 0 mm 0 mps 762 mmHg 40%

    28 September, Friday

    Time Temperature Precipitation Wind Pressure Humidity
    00:00 +12°C° 0 mm 0 mps 761 mmHg 41%
    01:00 +12°C° 0 mm 0 mps 761 mmHg 42%
    02:00 +12°C° 0 mm 0 mps 760 mmHg 43%
    03:00 +11°C° 0 mm 0 mps 760 mmHg 43%
    04:00 +11°C° 0 mm 0 mps 760 mmHg 44%
    05:00 +12°C° 0 mm 0 mps 760 mmHg 43%
    06:00 +13°C° 0 mm 0 mps 759 mmHg 42%
    07:00 +14°C° 0 mm 0 mps 759 mmHg 42%
    08:00 +16°C° 0 mm 0 mps 759 mmHg 36%
    09:00 +18°C° 0 mm 0 mps 759 mmHg 31%
    10:00 +20°C° 0 mm 0 mps 759 mmHg 26%
    11:00 +23°C° 0 mm 1 mps 758 mmHg 26%
    12:00 +24°C° 0 mm 1 mps 758 mmHg 25%
    13:00 +25°C° 0 mm 1 mps 757 mmHg 24%
    14:00 +25°C° 0 mm 1 mps 757 mmHg 25%
    15:00 +23°C° 0 mm 0 mps 756 mmHg 26%
    16:00 +23°C° 0 mm 0 mps 755 mmHg 27%
    17:00 +21°C° 0 mm 0 mps 755 mmHg 30%
    18:00 +19°C° 0 mm 0 mps 755 mmHg 34%
    19:00 +19°C° 0 mm 1 mps 755 mmHg 38%
    20:00 +19°C° 0 mm 1 mps 755 mmHg 39%
    21:00 +18°C° 0 mm 1 mps 755 mmHg 41%
    22:00 +18°C° 0 mm 1 mps 755 mmHg 42%
    23:00 +16°C° 0 mm 1 mps 755 mmHg 43%

    29 September, Saturday

    Time Temperature Precipitation Wind Pressure Humidity
    00:00 +16°C° 0 mm 2 mps 755 mmHg 44%
    01:00 +15°C° 0 mm 2 mps 755 mmHg 46%
    02:00 +15°C° 0 mm 2 mps 755 mmHg 48%
    03:00 +14°C° 0 mm 2 mps 755 mmHg 49%
    04:00 +14°C° 0 mm 2 mps 755 mmHg 51%
    05:00 +14°C° 0 mm 2 mps 755 mmHg 52%
    06:00 +13°C° 0 mm 3 mps 755 mmHg 53%
    07:00 +14°C° 0 mm 3 mps 756 mmHg 54%
    08:00 +17°C° 0 mm 4 mps 756 mmHg 50%
    09:00 +19°C° 0 mm 5 mps 756 mmHg 46%
    10:00 +20°C° 0 mm 5 mps 756 mmHg 42%
    11:00 +21°C° 0 mm 5 mps 756 mmHg 41%
    12:00 +21°C° 0 mm 5 mps 756 mmHg 40%
    13:00 +22°C° 0 mm 5 mps 756 mmHg 39%
    14:00 +22°C° 0 mm 5 mps 756 mmHg 40%
    15:00 +21°C° 0 mm 5 mps 756 mmHg 41%
    16:00 +21°C° 0 mm 5 mps 756 mmHg 43%
    17:00 +19°C° 0 mm 4 mps 756 mmHg 45%
    18:00 +18°C° 0 mm 4 mps 757 mmHg 48%
    19:00 +17°C° 0 mm 3 mps 757 mmHg 51%
    20:00 +16°C° 0 mm 3 mps 758 mmHg 51%
    21:00 +14°C° 0 mm 3 mps 758 mmHg 52%
    22:00 +13°C° 0 mm 3 mps 758 mmHg 52%
    23:00 +12°C° 0 mm 3 mps 758 mmHg 54%

    30 September, Sunday

    Time Temperature Precipitation Wind Pressure Humidity
    00:00 +11°C° 0 mm 3 mps 759 mmHg 56%
    01:00 +11°C° 0 mm 3 mps 759 mmHg 58%
    02:00 +10°C° 0 mm 2 mps 759 mmHg 60%
    03:00 +10°C° 0 mm 2 mps 759 mmHg 63%
    04:00 +9°C° 0 mm 2 mps 759 mmHg 66%
    05:00 +9°C° 0 mm 2 mps 759 mmHg 65%
    06:00 +10°C° 0 mm 2 mps 759 mmHg 64%
    07:00 +11°C° 0 mm 1 mps 759 mmHg 63%
    08:00 +13°C° 0 mm 1 mps 759 mmHg 56%
    09:00 +15°C° 0 mm 2 mps 759 mmHg 48%
    10:00 +17°C° 0 mm 2 mps 759 mmHg 41%
    11:00 +20°C° 0 mm 1 mps 759 mmHg 38%
    12:00 +21°C° 0 mm 1 mps 758 mmHg 35%
    13:00 +22°C° 0 mm 1 mps 758 mmHg 33%
    14:00 +22°C° 0 mm 1 mps 757 mmHg 33%
    15:00 +22°C° 0 mm 1 mps 757 mmHg 32%
    16:00 +20°C° 0 mm 0 mps 757 mmHg 32%
    17:00 +20°C° 0 mm 1 mps 757 mmHg 36%
    18:00 +18°C° 0 mm 1 mps 757 mmHg 40%
    19:00 +15°C° 0 mm 1 mps 757 mmHg 45%
    20:00 +15°C° 0 mm 1 mps 757 mmHg 46%
    21:00 +14°C° 0 mm 1 mps 757 mmHg 47%
    22:00 +14°C° 0 mm 1 mps 757 mmHg 48%
    23:00 +13°C° 0 mm 1 mps 757 mmHg 49%
    Show more